Home > Weather > Tehran > Past weeks

Flag for Iran Past Weather in Tehran, Iran — Yesterday and Last 2 Weeks

Now
95 °F

Scattered clouds.


Feels Like: 90 °F
Forecast: 82 / 101 °F
Wind: 9 mph from Southeast

Location: Tehran-Mehrabad

Current Time: Jun 30, 2016 at 11:32:29 AM

Latest Report: Jun 30, 2016 at 11:00 AM


Visibility: N/A

Pressure: 29.92 "Hg (26.25 "Hg at 1179m altitude)

Humidity: 9%

Dew Point: 28 °F

Location of TehranLocation

Past Weather in Tehran — Graph

°F

Tehran Temperature Yesterday

Maximum temperature yesterday: 102 °F (at 4:30 PM)
Minimum temperature yesterday: 79 °F (at 6:00 AM)
Average temperature yesterday: 92 °F

High & Low Weather Summary for the Past Weeks

 TemperatureHumidityPressure
High102 °F (Jun 29, 4:30 PM)46% (Jun 18, 5:30 AM)30.15 "Hg (Jun 18, 5:30 AM)
Low66 °F (Jun 18, 5:30 AM)6% (Jun 17, 6:30 PM)29.74 "Hg (Jun 16, 4:00 PM)
Average85 °F20%29.94 "Hg
* Reported Jun 15 9:30 AM — Jun 30 10:00 AM, Tehran, Weather by CustomWeather, © 2016

Note: Actual official high and low records may vary slightly from our data, if they occured in-between our weather recording intervals... More about our weather records

Advertising

Tehran Weather History for the Previous 24 Hours

Scroll right to see more
 ConditionsComfort  
Time TempWeatherWind HumidityBarometerVisibility
10:00 AM
Thu, Jun 30
95 °FPassing clouds.7 mph13%29.92 "HgN/A
9:30 AM95 °FScattered clouds.No wind11%29.92 "HgN/A
9:00 AM95 °FScattered clouds.No wind11%29.92 "HgN/A
8:30 AM93 °FScattered clouds.No wind15%29.92 "HgN/A
8:00 AM90 °FScattered clouds.5 mph18%29.92 "HgN/A
7:30 AM84 °FScattered clouds.7 mph25%29.92 "HgN/A
7:00 AM84 °FPassing clouds.5 mph25%29.92 "HgN/A
6:30 AM84 °FPassing clouds.7 mph20%29.92 "HgN/A
6:00 AM84 °FPassing clouds.5 mph23%29.89 "HgN/A
5:30 AM82 °FPassing clouds.No wind26%29.89 "HgN/A
5:00 AM84 °FPassing clouds.5 mph25%29.89 "HgN/A
4:30 AM84 °FPassing clouds.5 mph23%29.89 "HgN/A
4:00 AM86 °FPassing clouds.No wind24%29.89 "HgN/A
3:00 AM90 °FPassing clouds.5 mph18%29.86 "HgN/A
2:30 AM90 °FPassing clouds.5 mph18%29.86 "HgN/A
2:00 AM91 °FPassing clouds.5 mph17%29.83 "HgN/A
1:30 AM91 °FPassing clouds.5 mph17%29.83 "HgN/A
1:00 AM91 °FPassing clouds.5 mph15%29.83 "HgN/A
12:30 AM91 °FPassing clouds.5 mph15%29.83 "HgN/A
12:00 AM91 °FPassing clouds.5 mph15%29.83 "HgN/A
11:30 PM
Wed, Jun 29
93 °FPassing clouds.5 mph13%29.83 "HgN/A
11:00 PM95 °FPassing clouds.5 mph11%29.83 "HgN/A
10:30 PM95 °FPassing clouds.5 mph11%29.83 "HgN/A
10:00 PM93 °FPassing clouds.5 mph15%29.83 "HgN/A
9:30 PM93 °FScattered clouds.5 mph17%29.80 "HgN/A
9:00 PM99 °FScattered clouds.7 mph10%29.80 "HgN/A
8:30 PM99 °FScattered clouds.7 mph11%29.80 "HgN/A
8:00 PM99 °FScattered clouds.9 mph9%29.80 "HgN/A
7:30 PM100 °FPassing clouds.9 mph10%29.80 "HgN/A
6:30 PM100 °FPassing clouds.7 mph9%29.80 "HgN/A
6:00 PM102 °FPassing clouds.7 mph9%29.80 "HgN/A
5:30 PM100 °FPassing clouds.No wind9%29.80 "HgN/A
5:00 PM102 °FPassing clouds.7 mph10%29.83 "HgN/A
4:30 PM102 °FPassing clouds.7 mph10%29.83 "HgN/A
4:00 PM100 °FPassing clouds.9 mph10%29.83 "HgN/A
3:30 PM100 °FPassing clouds.9 mph10%29.83 "HgN/A
3:00 PM100 °FPassing clouds.9 mph10%29.83 "HgN/A
2:30 PM99 °FPassing clouds.7 mph11%29.83 "HgN/A
2:00 PM99 °FPassing clouds.12 mph10%29.86 "HgN/A
1:30 PM99 °FPassing clouds.12 mph10%29.86 "HgN/A
1:00 PM97 °FScattered clouds.6 mph12%29.89 "HgN/A
12:30 PM97 °FScattered clouds.6 mph13%29.89 "HgN/A
12:00 PM97 °FScattered clouds.12 mph12%29.89 "HgN/A
11:30 AM95 °FScattered clouds.7 mph11%29.92 "HgN/A
11:00 AM95 °FScattered clouds.6 mph13%29.92 "HgN/A
Weather by CustomWeather, © 2016

See weather overviewHow to use our weather pages